NATIONAL KEY DEER NWR FL US current weather conditions

sailwx.info

Air temperature 24.4° C
Dewpoint 22.9° C

Last reported at 2017-Jun-27 09:38 UTC.
Time now 2017-Jun-27 10:37 UTC

Location: N 24°43' W 081°23'.
View on Google Maps.

See reports from other nearby stations

  
Tides and Currents Weather Stations Pressure Air Temp Water Temp Dewpoint Dewpoint Depression Visibility Wind Speed Wind Dir Waves Ship Positions
date/time (UTC)wind fromknots sea level pressurealtimeterstation pressurevisibilityair tempwater tempwave heightnotes
2017-Jun-27 09:38 24.4
2017-Jun-27 08:38 164 2 gusting 2 25.6
2017-Jun-27 07:38 134 1 gusting 6 26.7
2017-Jun-27 06:38 129 3 gusting 6 27.2
2017-Jun-27 05:38 102 2 gusting 7 27.8
2017-Jun-27 04:38 168 1 gusting 6 27.2
2017-Jun-27 03:38 126 2 gusting 6 27.2
2017-Jun-27 02:38 146 1 gusting 6 27.2
2017-Jun-27 01:38 114 2 gusting 6 27.8
2017-Jun-27 00:38 115 2 gusting 6 28.3
2017-Jun-26 23:38 093 1 gusting 6 29.4
2017-Jun-26 22:38 096 3 gusting 7 30.6
2017-Jun-26 21:38 129 3 gusting 9 32.2
2017-Jun-26 20:38 157 5 gusting 10 32.8
2017-Jun-26 19:38 144 5 gusting 11 33.3
2017-Jun-26 18:38 100 4 gusting 9 32.2
2017-Jun-26 17:38 139 4 gusting 10 33.3
2017-Jun-26 16:38 152 5 gusting 11 32.2
2017-Jun-26 15:38 141 5 gusting 9 32.8
2017-Jun-26 14:38 145 5 gusting 11 31.7
2017-Jun-26 13:38 141 5 gusting 12 31.1
2017-Jun-26 12:38 130 4 gusting 9 30.0
2017-Jun-26 11:38 150 2 gusting 7 28.3
2017-Jun-26 10:38 147 2 gusting 7 27.2
2017-Jun-26 09:38 111 2 gusting 6 27.8
2017-Jun-26 08:38 115 3 gusting 9 27.8
2017-Jun-26 07:38 104 3 gusting 9 27.8
2017-Jun-26 06:38 100 3 gusting 8 27.8
2017-Jun-26 05:38 089 4 gusting 9 27.8
2017-Jun-26 04:38 094 3 gusting 12 27.8
2017-Jun-26 03:38 087 5 gusting 10 28.3
2017-Jun-26 02:38 082 4 gusting 10 28.3
2017-Jun-26 01:38 086 5 gusting 11 28.3
2017-Jun-26 00:38 093 4 gusting 10 28.3
2017-Jun-25 23:38 100 4 gusting 10 30.0
2017-Jun-25 22:38 115 5 gusting 13 31.1
2017-Jun-25 21:38 134 5 gusting 12 31.7
2017-Jun-25 20:38 106 5 gusting 11 32.2
2017-Jun-25 19:38 082 6 gusting 13 32.2
2017-Jun-25 18:38 102 6 gusting 12 32.8
2017-Jun-25 17:38 100 5 gusting 11 32.8
2017-Jun-25 16:38 100 5 gusting 10 32.8
2017-Jun-25 15:38 101 4 gusting 13 32.8
2017-Jun-25 14:38 102 5 gusting 10 31.7
2017-Jun-25 13:38 136 4 gusting 8 31.1
2017-Jun-25 12:38 127 5 gusting 10 30.0
2017-Jun-25 11:38 134 3 gusting 8 28.9
2017-Jun-25 10:38 133 2 gusting 6 27.2